Regional Weather Roundup
Issued by NWS

Home | Current Version | Previous Version | Graphics & Text | Print | Product List | Glossary On
Versions: 1 2 3 4 5 6 7 8 9 10 11 12 13 14 15 16 17 18 19 20 21 22 23 24 25 26 27 28 29 30 31 32 33 34 35 36 37 38 39 40 41 42 43 44 45 46 47 48 49 50
000
ASUS45 KBOU 181207
RWRCO

WEATHER ROUNDUP FOR COLORADO
NATIONAL WEATHER SERVICE DENVER/BOULDER CO
600 AM MDT WED OCT 18 2017

NOTE: "FAIR" INDICATES FEW OR NO CLOUDS BELOW 12000 FEET WITH NO
SIGNIFICANT WEATHER AND/OR OBSTRUCTIONS TO VISIBILITY.

COZ001>005-013-030-031-181300-
...NORTHWEST COLORADO...

CITY           SKY/WX    TMP DP  RH WIND       PRES   REMARKS
CRAIG          FAIR      23  16  74 CALM      30.25R
HAYDEN         FAIR      32  15  49 SE14      30.27R WCI  22
MEEKER         FAIR      32  15  49 CALM      30.25S
RABBIT EARS PA FAIR      36   1  23 W8G20     30.40R
STEAMBOAT SPGS FAIR      26  16  66 W5        30.27S WCI  20
WALDEN         FAIR      34   7  32 CALM      30.30R
$$

COZ006>008-011-181300-
...WEST CENTRAL VALLEYS...

CITY           SKY/WX    TMP DP  RH WIND       PRES   REMARKS
GRAND JUNCTION FAIR      38  15  39 E6        30.21R
MONTROSE       FAIR      32  15  49 S8        30.27R WCI  25
EAGLE          FAIR      25  17  72 E3        30.34R
RIFLE          FAIR      33  18  53 CALM      30.27R
DELTA          FAIR      35  16  46 CALM      30.25S
NUCLA          FAIR      36   5  27 E5        30.29S
$$

COZ017>023-064>068-181300-
...SOUTHWEST COLORADO...

CITY           SKY/WX    TMP DP  RH WIND       PRES   REMARKS
DURANGO        FAIR      32  16  51 NE3       30.27S
CORTEZ         FAIR      30  16  56 NE6       30.25S WCI  24
PAGOSA SPRINGS FAIR      31  15  51 CALM      30.32S
TELLURIDE      NOT AVBL
WOLF CREEK PAS FAIR      34   3  27 SW6       30.54S WCI  29
$$

COZ009-010-012-014-032>034-037-058>063-181300-
...CENTRAL COLORADO...

CITY           SKY/WX    TMP DP  RH WIND       PRES   REMARKS
ASPEN          FAIR      32  12  43 S7        30.33R WCI  26
BUENA VISTA    FAIR      32  14  46 W8        30.31R WCI  25
COPPER MTN     MIX PCPN  34   3  27 W13       30.49R VSB 1   WCI  25
BERTHOUD PASS  FAIR      32  23  69 NW46      30.40F WCI  15
COTTONWOOD PAS FAIR      46  -4  12 NW7       30.37S
GUNNISON       FAIR      18  11  74 CALM      30.40R
KREMMLING      FAIR      25  18  74 CALM      30.35R
LEADVILLE      FAIR      33   1  25 NE10      30.38R WCI  25
SALIDA         NOT AVBL
SUNLIGHT       FAIR      36  -2  20 SW10      30.47R
WILKERSON PASS FAIR      39  -2  17 W7        30.46R
$$

COZ069>075-181300-
...SAN LUIS VALLEY/SANGRE DE CRISTO MOUNTAINS...

CITY           SKY/WX    TMP DP  RH WIND       PRES   REMARKS
ALAMOSA        FAIR      22  16  78 NE5       30.31R WCI  16
DEL NORTE      FAIR      39  13  34 W18       30.32R
LA VETA PASS   FAIR      39  12  33 SW18      30.49R
SAGUACHE       FAIR      34   9  35 N14       30.32S WCI  24
$$

COZ035-036-038>040-181300-
...NORTHERN COLORADO FRONT RANGE...

CITY           SKY/WX    TMP DP  RH WIND       PRES   REMARKS
DENVER INTL AP MOCLDY    56  16  20 SW13      30.07S
DMNS CITY PARK   N/A     53  18  24 SW3G10    30.10R
AURORA         MOCLDY    54  17  24 SW12      30.10R
FRONT RANGE AP FAIR      59  18  20 SW9       30.09R
ERIE MUNI ARPT FAIR      51  22  32 S6        30.12R
BOULDER MUN AP FAIR      64  10  12 SW15G23   30.07R
CENTENNIAL     FAIR      57  12  17 SW9       30.12R
BROOMFIELD     FAIR      64   9  11 N6        30.09R
FORT COLLINS   FAIR      45  32  60 SW3       30.05S
LONGMONT       FAIR      57  16  20 CALM      30.07S
$$

COZ041-046-047-076>085-087-088-181300-
...PIKES PEAK/PALMER DIVIDE AND SOUTHERN FOOTHILLS...

CITY           SKY/WX    TMP DP  RH WIND       PRES   REMARKS
COLO. SPRINGS  MOCLDY    54  21  27 NW7       30.14S
A. F. ACADEMY  MOCLDY    53  11  18 NW5       30.15R
SCHRIEVER AFB  MOCLDY    51  19  28 N7        30.13S
CHEYENNE MTN   MOCLDY    58  10  15 NW9       30.12R
ELLICOTT       FAIR     N/A N/A N/A NE5       30.12R
FALCON         FAIR      56   8  14 NW8       30.18R
FORT CARSON    FAIR      48  20  33 NW8       30.10S
LIMON          FAIR      36  29  75 CALM      30.09R
MONUMENT HILL  FAIR      50  12  22 W7        30.20R
CANON CITY     CLEAR     57  12  17 W16       30.11R
WALSENBURG     FAIR      52  16  24 E3        30.14S
TRINIDAD       FAIR      44  20  38 W13       30.13S
$$

COZ042>045-048>051-090-091-181300-
...NORTHEAST COLORADO...

CITY           SKY/WX    TMP DP  RH WIND       PRES   REMARKS
GREELEY ARPT   FAIR      39  34  82 E5        30.05R
AKRON          FAIR      49  24  37 W12       30.03R
BURLINGTON     FAIR      49  32  52 W10       30.02R
WRAY           FAIR      45  30  57 SW7       30.00R
YUMA           FAIR      45  28  53 W12       30.01R
STERLING       FAIR      37  30  75 S5        30.01R
HOLYOKE        FAIR      45  32  61 W10       29.99R
FORT MORGAN    FAIR      49  23  36 W8        30.04R
$$

COZ086-089-092>099-181300-
...SOUTHEAST COLORADO...

CITY           SKY/WX    TMP DP  RH WIND       PRES   REMARKS
PUEBLO         FAIR      44  25  47 W13       30.07R
LA JUNTA       FAIR      44  27  51 W12       30.05R
LAMAR          FLURRIES  33  29  85 W7        30.02R WCI  27
SPRINGFIELD      N/A     43  30  60 NW10      30.04R
$$



USA.gov is the U.S. government's official web portal to all federal, state and local government web resources and services.